Date,TemperatureHighF,TemperatureAvgF,TemperatureLowF,DewpointHighF,DewpointAvgF,DewpointLowF,HumidityHigh,HumidityAvg,HumidityLow,PressureMaxIn,PressureMinIn,WindSpeedMaxMPH,WindSpeedAvgMPH,GustSpeedMaxMPH,PrecipitationSumIn
2014-1-1,31.2,20.3,10.4,24.4,15.2,6.0,89,80,65,30.44,30.18,7,1,10,0.01
2014-1-2,35.6,24.6,17.7,23.2,18.6,12.9,88,78,60,30.34,29.94,9,2,12,0.00
2014-1-3,53.6,36.7,25.0,33.9,22.9,16.9,77,59,30,29.91,29.41,16,3,20,0.02
2014-1-4,26.4,17.0,6.7,16.6,8.4,1.8,80,69,57,30.38,29.84,8,3,13,0.00
2014-1-5,9.7,-3.4,-12.8,2.6,-14.4,-25.2,73,59,38,30.75,30.38,11,4,16,0.00
2014-1-6,12.6,0.8,-13.3,4.0,-10.8,-22.3,70,58,40,30.71,30.18,4,0,8,0.00
2014-1-7,36.5,26.6,12.8,21.5,18.7,5.6,88,73,32,30.17,30.10,8,0,8,0.00
2014-1-8,32.8,22.1,18.3,27.8,19.0,15.4,91,88,79,30.18,29.95,10,1,13,0.00
2014-1-9,46.0,33.8,19.5,26.8,22.1,16.8,90,64,37,29.95,29.62,9,1,18,0.01
2014-1-10,43.1,38.4,32.2,28.1,20.2,12.6,70,49,31,29.70,29.57,14,2,23,0.00
2014-1-11,56.6,45.7,31.0,29.9,25.1,19.6,65,45,31,29.81,29.26,34,6,40,0.00
2014-1-12,54.4,40.6,27.3,30.7,22.0,14.4,83,49,26,29.79,29.27,25,4,39,0.00
2014-1-13,48.2,36.9,24.8,34.5,26.7,17.7,85,67,41,30.00,29.67,31,5,34,0.10
2014-1-14,34.1,30.1,25.0,26.3,18.1,12.7,90,61,44,30.34,30.02,31,5,31,0.00
2014-1-15,53.3,40.0,24.8,28.7,21.8,17.0,79,51,27,30.21,29.84,20,6,37,0.01
2014-1-16,38.0,32.5,24.8,20.4,12.2,7.5,59,43,33,30.26,29.95,29,10,44,0.00
2014-1-17,52.9,34.3,20.3,23.1,15.5,9.8,68,49,25,30.23,29.87,25,2,26,0.00
2014-1-18,48.6,40.0,31.5,23.2,15.1,4.0,53,37,16,30.10,29.84,30,6,35,0.00
2014-1-19,58.6,45.9,34.9,19.5,16.6,12.1,49,32,16,29.91,29.77,11,2,20,0.00
2014-1-20,41.2,32.5,15.1,21.0,15.0,9.5,80,51,27,30.43,29.91,27,7,42,0.00
2014-1-21,49.8,31.9,10.5,23.6,16.4,6.0,84,57,17,30.35,30.11,22,4,28,0.00
2014-1-22,31.8,18.9,-0.8,23.0,10.6,-9.4,79,70,60,30.72,30.16,14,2,17,0.00
2014-1-23,31.0,12.2,-5.9,9.1,-2.0,-12.0,76,55,26,30.82,30.29,8,0,14,0.00
2014-1-24,57.3,49.2,27.5,32.6,27.1,1.5,56,43,22,30.29,29.88,28,9,38,0.00
2014-1-25,60.1,49.9,39.1,34.5,27.9,21.3,77,46,23,29.97,29.60,21,7,35,0.00
2014-1-26,46.8,26.8,6.3,31.4,10.8,-9.4,85,52,36,30.34,29.58,21,9,36,0.01
2014-1-27,13.8,7.2,0.5,0.6,-3.3,-7.4,73,62,43,30.55,30.33,9,0,15,0.00
2014-1-28,23.9,10.4,-1.4,1.2,-2.5,-7.7,77,58,34,30.54,30.13,4,0,7,0.00
2014-1-29,50.7,35.7,9.5,32.0,14.8,-1.8,90,45,27,30.13,29.36,7,1,14,0.01
2014-1-30,38.5,16.4,11.4,31.1,10.9,5.6,86,78,71,30.10,29.36,17,2,20,0.01
2014-1-31,40.3,20.9,10.5,25.4,13.1,5.3,80,72,49,30.10,29.80,8,1,16,0.00
2014-2-1,19.4,11.5,1.8,7.0,1.7,-4.0,76,65,39,30.32,29.98,15,3,22,0.00
2014-2-2,35.5,15.9,-1.2,12.8,2.2,-6.7,77,58,25,30.31,30.19,7,1,10,0.00
2014-2-3,16.4,12.3,9.2,8.8,6.2,4.6,82,76,68,30.42,30.16,8,0,11,0.00
2014-2-4,9.2,1.1,-1.2,4.4,-5.8,-8.6,81,72,66,30.81,30.42,5,0,9,0.00
2014-2-5,0.9,-4.1,-11.7,-6.9,-13.4,-19.1,73,63,55,30.90,30.81,8,1,11,0.00
2014-2-6,0.3,-6.9,-13.5,-10.5,-15.4,-20.7,72,66,57,30.82,30.38,6,0,8,0.00
2014-2-7,19.5,4.4,-12.0,6.9,-4.1,-19.0,80,68,52,30.38,30.02,16,2,20,0.00
2014-2-8,18.0,9.6,2.6,12.1,3.6,-2.4,82,76,68,30.45,30.10,15,2,19,0.00
2014-2-9,7.4,3.3,-4.1,-1.2,-3.8,-9.7,77,72,65,30.52,30.43,9,0,12,0.00
2014-2-10,14.6,4.9,-5.4,7.2,-1.0,-11.3,80,76,71,30.48,30.32,4,0,6,0.00
2014-2-11,37.9,23.6,2.8,27.8,15.5,-2.0,81,72,57,30.32,29.94,25,1,38,0.05
2014-2-12,51.0,34.1,15.6,27.5,20.8,11.6,86,62,31,30.19,29.56,16,3,25,0.00
2014-2-13,49.5,42.6,33.1,32.9,23.6,19.5,81,48,34,29.75,29.54,19,4,28,0.03
2014-2-14,44.6,39.1,31.8,25.1,21.2,18.6,73,49,40,29.93,29.64,18,3,26,0.00
2014-2-15,49.1,40.5,29.0,31.9,23.4,14.6,83,53,25,30.03,29.64,22,5,26,0.00
2014-2-16,64.8,37.5,26.1,34.4,27.3,17.0,88,70,24,29.93,29.45,14,4,33,0.00
2014-2-17,49.8,45.6,31.9,16.2,8.6,6.8,42,23,17,29.92,29.83,12,3,25,0.00
2014-2-18,49.8,49.8,49.8,6.8,6.8,6.8,17,17,17,29.84,29.84,4,4,4,0.00
2014-2-19,49.8,46.6,35.2,28.2,8.0,3.8,66,22,17,29.84,29.52,15,4,24,0.00
2014-2-20,36.0,31.2,21.8,21.6,8.7,2.0,78,39,27,29.85,29.70,27,6,39,0.00
2014-2-21,41.5,33.2,23.0,25.0,14.2,7.4,82,48,24,29.91,29.74,12,4,22,0.00
2014-2-22,28.4,21.2,14.8,19.2,14.1,6.2,84,74,63,30.30,29.92,10,2,15,0.00
2014-2-23,21.8,17.1,13.1,13.0,7.8,4.1,82,66,56,30.43,30.29,13,1,15,0.00
2014-2-24,17.5,9.9,-1.6,15.1,4.8,-7.6,91,79,68,30.57,30.13,15,3,19,0.00
2014-2-25,14.6,6.5,-0.6,2.9,-1.9,-6.6,76,68,53,30.67,30.48,15,2,26,0.00
2014-2-26,39.8,19.1,-2.0,8.3,1.2,-8.6,77,49,21,30.48,30.10,8,1,15,0.00
2014-2-27,35.9,20.2,5.0,16.9,9.8,-0.4,80,65,41,30.09,29.61,10,1,15,0.00
2014-2-28,30.7,14.4,0.3,24.9,6.5,-6.0,83,70,57,30.36,29.61,16,5,26,0.00
2014-3-1,0.3,-5.3,-12.8,-5.9,-12.4,-19.8,75,71,68,30.71,30.35,8,1,10,0.00
2014-3-2,3.2,-6.3,-13.5,-4.6,-13.1,-20.5,74,71,68,30.75,30.46,13,2,16,0.00
2014-3-3,21.9,8.3,-6.3,13.7,1.6,-12.4,80,74,65,30.44,30.11,9,1,12,0.05
2014-3-4,19.2,13.1,6.5,11.1,7.1,1.4,82,77,68,30.26,30.03,5,0,8,0.00
2014-3-5,52.6,29.8,10.9,38.1,21.3,7.0,87,72,31,30.27,29.87,10,1,13,0.02
2014-3-6,57.2,45.4,31.8,39.8,31.5,23.6,80,59,36,29.86,29.54,13,2,20,0.03
2014-3-7,42.6,26.0,21.3,36.6,23.3,18.6,92,90,75,30.28,29.78,10,1,13,0.00
2014-3-8,55.6,40.1,21.9,36.3,28.0,19.4,92,65,37,30.33,29.93,7,1,13,0.01
2014-3-9,73.2,57.9,35.2,27.4,20.8,16.6,71,26,13,29.93,29.71,16,3,20,0.00
2014-3-10,69.1,52.0,35.9,39.5,30.9,24.6,86,47,23,29.75,29.45,17,4,21,0.00
2014-3-11,39.2,34.9,31.5,32.3,27.3,22.7,94,75,52,30.30,29.67,16,4,21,0.32
2014-3-12,53.5,42.6,27.9,27.5,20.6,13.2,75,43,27,30.29,30.00,11,3,26,0.00
2014-3-13,62.3,47.8,30.1,27.0,20.9,16.5,64,37,17,30.00,29.62,20,4,26,0.00
2014-3-14,57.8,45.6,27.2,26.3,20.6,12.9,60,38,22,29.87,29.74,10,2,13,0.00
2014-3-15,44.1,36.3,23.6,35.7,27.8,21.4,92,73,44,30.39,29.76,15,3,24,0.01
2014-3-16,61.8,40.9,23.8,34.8,23.7,17.5,92,60,19,30.38,29.74,11,2,16,0.02
2014-3-17,62.4,50.2,36.5,37.8,25.6,14.6,84,42,21,29.72,29.12,11,2,17,0.04
2014-3-18,39.6,35.2,31.5,32.6,27.6,21.9,95,75,56,30.06,29.44,20,6,27,0.36
2014-3-19,45.8,37.3,25.6,23.8,20.6,15.2,75,52,31,30.06,29.91,12,2,15,0.00
2014-3-20,61.8,42.8,30.1,31.4,18.1,9.0,73,42,13,29.92,29.63,20,4,29,0.00
2014-3-21,38.9,31.2,20.8,25.7,20.1,14.4,82,64,40,30.40,29.84,15,4,27,0.00
2014-3-22,21.8,17.9,13.1,14.4,12.0,8.8,83,77,67,30.58,30.39,5,1,9,0.01
2014-3-23,37.0,23.1,8.1,25.0,15.7,3.5,84,74,57,30.56,30.18,14,2,19,0.01
2014-3-24,31.9,25.9,20.2,23.1,17.7,8.6,85,71,54,30.46,30.33,14,2,20,0.03
2014-3-25,43.8,29.1,14.0,23.9,15.3,5.7,71,57,41,30.46,29.72,16,4,24,0.00
2014-3-26,63.1,39.8,27.6,35.1,26.9,17.6,81,62,20,29.72,29.34,13,3,20,0.00
2014-3-27,35.6,31.7,25.6,22.3,20.1,17.0,75,62,56,29.82,29.50,12,4,19,0.00
2014-3-28,33.4,27.0,23.0,24.7,21.2,18.0,87,79,69,30.21,30.06,7,2,10,0.04
2014-3-29,69.9,48.4,24.2,32.3,23.8,20.1,87,47,17,30.17,29.67,15,3,26,0.01
2014-3-30,56.3,48.0,39.3,38.2,32.8,28.8,74,56,42,29.76,29.44,17,2,22,0.01
2014-3-31,43.2,25.8,19.1,35.4,19.6,13.9,91,77,65,30.16,29.47,19,6,33,0.02
2014-4-1,25.1,21.5,16.4,21.4,16.6,11.1,86,81,72,30.15,30.05,12,3,16,0.00
2014-4-2,26.6,25.1,22.5,24.4,22.6,20.0,92,90,84,30.09,29.91,13,3,17,0.00
2014-4-3,39.6,29.0,19.7,32.1,24.4,17.0,92,83,55,30.17,29.96,16,2,19,0.19
2014-4-4,50.8,36.0,21.0,32.0,24.8,17.6,87,66,43,30.18,29.85,17,3,23,0.01
2014-4-5,58.9,45.6,30.4,35.5,26.6,18.9,76,51,23,29.86,29.77,13,2,19,0.00
2014-4-6,56.2,47.6,36.3,35.9,30.9,21.7,80,54,28,29.88,29.75,9,1,19,0.05
2014-4-7,52.2,46.0,39.8,32.1,25.5,19.3,68,46,28,30.06,29.87,22,5,29,0.01
2014-4-8,66.8,51.6,32.1,32.6,27.5,22.2,68,42,25,30.07,29.81,11,1,12,0.00
2014-4-9,76.8,61.6,49.8,39.0,27.6,21.3,63,30,13,29.81,29.50,17,4,24,0.00
2014-4-10,61.3,52.2,40.8,30.4,25.4,18.2,51,36,22,29.87,29.75,11,1,16,0.00
2014-4-11,73.5,58.5,39.6,35.0,28.1,19.2,60,34,18,29.90,29.51,19,3,28,0.00
2014-4-12,59.8,49.1,36.9,37.5,31.6,26.5,80,52,34,29.91,29.58,14,4,19,0.03
2014-4-13,36.9,29.6,24.5,31.3,17.3,8.7,88,62,33,30.35,29.91,19,6,23,0.01
2014-4-14,43.3,33.5,25.0,17.9,12.6,9.6,58,43,27,30.34,30.09,21,3,21,0.00
2014-4-15,65.6,43.6,18.9,37.7,20.2,10.0,80,45,17,30.09,29.52,10,2,21,0.03
2014-4-16,46.1,39.5,31.5,37.2,29.4,23.5,83,67,50,30.18,29.58,23,5,23,0.01
2014-4-17,54.1,40.9,28.8,36.9,30.7,23.3,86,68,50,30.19,29.94,18,6,27,0.00
2014-4-18,79.2,53.4,32.9,43.4,34.6,28.1,89,58,16,29.94,29.50,21,2,29,0.00
2014-4-19,65.2,54.6,46.0,39.7,23.9,10.2,68,32,17,29.91,29.68,16,4,25,0.00
2014-4-20,71.5,56.4,39.9,39.6,30.4,19.7,66,40,24,30.04,29.82,17,3,24,0.00
2014-4-21,67.1,56.3,44.1,29.3,22.7,16.9,39,28,18,30.13,29.97,10,1,18,0.00
2014-4-22,76.0,60.2,38.2,45.7,35.0,24.5,65,40,23,29.97,29.39,13,2,20,0.00
2014-4-23,67.4,56.7,44.1,45.1,37.7,24.1,67,50,28,29.71,29.26,22,3,24,0.00
2014-4-24,63.9,52.2,41.6,29.3,23.3,16.3,46,33,22,29.79,29.68,10,2,16,0.00
2014-4-25,69.4,58.2,40.9,32.4,28.7,24.9,53,34,21,29.76,29.56,15,3,23,0.00
2014-4-26,67.9,57.9,45.5,44.5,37.4,29.8,58,47,37,29.57,29.27,12,3,16,0.00
2014-4-27,51.7,41.0,35.0,39.4,35.9,31.5,91,82,58,29.51,29.24,22,7,28,0.74
2014-4-28,45.7,40.2,33.5,37.2,34.0,30.6,91,79,62,29.91,29.45,28,10,34,0.22
2014-4-29,37.9,35.3,32.4,33.1,30.7,27.3,92,83,71,30.30,29.90,29,12,35,0.40
2014-4-30,50.8,42.8,35.2,29.4,26.7,23.8,70,54,40,30.30,30.17,20,9,30,0.00
2014-5-1,58.4,49.2,42.5,31.3,27.1,19.6,64,44,24,30.17,29.93,17,5,24,0.00
2014-5-2,61.2,53.2,44.1,42.7,35.3,24.2,79,52,33,29.93,29.79,10,2,16,0.00
2014-5-3,54.2,48.8,42.2,42.9,40.0,36.8,81,72,62,29.94,29.84,10,1,12,0.00
2014-5-4,62.0,48.5,40.1,42.7,37.1,32.5,78,65,47,29.95,29.72,16,4,20,0.00
2014-5-5,71.1,54.2,37.2,51.3,42.2,32.8,84,66,47,29.87,29.57,14,3,24,0.00
2014-5-6,58.6,53.8,47.1,48.1,44.8,40.7,80,71,64,29.65,29.54,12,2,13,0.00
2014-5-7,54.4,44.7,32.8,48.8,40.0,30.3,93,84,68,29.90,29.57,17,4,22,0.39
2014-5-8,46.5,38.5,33.1,35.2,31.7,27.5,92,77,57,29.94,29.84,14,3,21,0.38
2014-5-9,61.6,48.3,33.4,44.2,36.1,28.5,83,64,41,29.89,29.59,14,2,17,0.01
2014-5-10,63.4,52.8,42.6,41.8,36.0,26.3,80,56,27,29.81,29.56,21,4,21,0.00
2014-5-11,42.9,40.0,38.2,36.9,34.1,31.3,88,79,64,30.14,29.82,16,6,25,0.21
2014-5-12,49.6,43.6,37.0,32.9,24.4,19.6,83,48,31,30.28,30.12,17,7,27,0.00
2014-5-13,57.2,48.5,38.5,29.6,23.5,18.2,56,38,22,30.29,30.25,19,3,28,0.00
2014-5-14,58.3,49.7,42.2,34.6,27.6,21.5,59,43,28,30.26,30.19,11,3,19,0.00
2014-5-15,60.7,51.2,38.0,33.3,25.7,21.0,54,38,25,30.23,29.95,11,2,16,0.00
2014-5-16,55.6,49.9,43.1,42.7,38.2,30.5,79,65,43,30.05,29.84,22,3,31,0.01
2014-5-17,64.2,52.5,38.3,43.2,38.2,33.3,87,60,38,30.02,29.85,9,1,14,0.00
2014-5-18,72.1,59.5,43.3,52.6,47.0,37.7,90,65,49,29.85,29.40,17,4,24,0.00
2014-5-19,69.6,63.1,56.2,50.2,45.8,41.3,76,54,37,29.76,29.40,8,2,16,0.34
2014-5-20,68.1,59.6,54.2,50.1,45.0,41.0,70,59,43,29.96,29.73,6,0,10,0.00
2014-5-21,63.1,54.5,47.6,50.3,46.0,42.6,88,74,58,30.09,29.96,12,2,15,0.12
2014-5-22,75.6,63.7,47.7,56.7,51.9,44.6,90,67,47,30.02,29.91,11,2,19,0.00
2014-5-23,78.8,67.3,54.1,58.8,52.8,48.1,86,62,38,29.92,29.80,12,2,23,0.00
2014-5-24,77.9,65.2,52.6,59.1,54.9,49.8,91,71,49,29.82,29.66,18,3,24,0.00
2014-5-25,75.8,65.8,57.5,55.7,53.8,51.7,86,66,46,29.80,29.69,12,1,15,0.00
2014-5-26,80.9,69.6,59.2,56.3,53.5,50.6,77,58,36,29.82,29.72,7,1,11,0.00
2014-5-27,80.5,66.2,55.6,62.9,55.0,44.3,82,69,30,29.90,29.74,10,1,22,0.03
2014-5-28,87.4,73.4,59.3,60.3,56.1,51.0,77,57,31,29.91,29.70,16,3,20,0.04
2014-5-29,91.2,74.6,60.2,60.2,54.3,48.8,85,53,24,29.80,29.60,19,4,22,0.03
2014-5-30,64.3,60.6,58.4,57.6,54.1,50.3,92,79,68,29.98,29.80,11,1,15,0.24
2014-5-31,75.1,64.7,58.6,62.6,57.9,53.8,95,80,54,29.94,29.61,14,2,22,0.38
2014-6-1,68.6,60.5,54.2,56.8,51.8,46.7,88,73,53,29.83,29.64,10,1,17,0.52
2014-6-2,73.2,64.1,53.1,51.2,46.7,41.3,77,55,35,29.88,29.83,8,1,13,0.00
2014-6-3,60.7,57.6,54.7,56.7,53.5,48.9,92,86,70,29.86,29.67,14,1,21,0.13
2014-6-4,73.0,60.2,48.6,61.2,53.0,46.4,95,78,59,29.83,29.68,13,1,24,0.05
2014-6-5,75.8,66.0,52.6,52.4,46.0,40.4,78,50,30,29.80,29.75,10,1,13,0.00
2014-6-6,60.4,51.4,43.8,51.2,47.4,41.9,94,87,63,30.10,29.78,10,1,16,0.16
2014-6-7,57.2,50.1,43.8,47.2,44.4,42.0,94,82,66,30.14,30.05,7,0,9,0.03
2014-6-8,55.1,51.7,47.4,51.9,48.4,44.9,93,89,82,30.06,29.96,5,0,11,0.27
2014-6-9,69.9,59.4,45.8,45.4,40.6,32.0,94,54,25,30.03,29.77,15,2,22,0.01
2014-6-10,76.7,63.0,47.0,60.0,49.0,41.2,83,62,42,29.77,29.55,19,2,30,0.41
2014-6-11,65.2,57.6,49.4,51.6,48.3,42.4,88,72,49,30.00,29.63,16,3,25,0.00
2014-6-12,64.2,55.4,44.3,47.0,43.6,39.2,83,65,50,30.11,29.91,10,2,16,0.00
2014-6-13,83.8,64.4,48.8,62.0,51.3,43.7,84,64,41,29.91,29.31,14,4,24,0.01
2014-6-14,64.2,57.8,48.9,53.6,49.8,43.7,88,75,63,29.73,29.42,13,2,17,0.69
2014-6-15,70.1,60.9,48.6,49.4,43.7,37.0,80,55,32,29.69,29.64,9,1,16,0.00
2014-6-16,78.6,65.6,51.7,63.0,53.1,45.7,86,66,41,29.66,29.43,10,1,15,0.33
2014-6-17,82.0,70.6,62.4,67.9,62.8,58.2,94,78,50,29.59,29.46,12,2,18,0.08
2014-6-18,71.1,64.7,59.0,63.9,58.1,53.9,94,80,59,29.76,29.48,7,1,15,0.35
2014-6-19,73.7,65.2,53.5,55.3,46.8,32.9,92,57,23,29.83,29.74,7,0,10,0.00
2014-6-20,80.9,70.5,56.6,55.5,48.3,38.2,69,47,24,29.83,29.73,8,1,13,0.00
2014-6-21,80.3,67.9,57.0,63.9,55.9,50.7,85,67,45,29.79,29.61,13,1,23,0.63
2014-6-22,70.3,61.9,56.9,54.5,52.0,48.6,87,71,48,29.93,29.74,7,0,15,0.26
2014-6-23,74.9,65.4,57.2,52.8,49.3,41.3,81,58,32,29.95,29.88,8,1,11,0.01
2014-6-24,77.6,68.0,57.3,55.0,49.3,42.2,78,53,30,29.92,29.84,7,1,13,0.00
2014-6-25,82.4,68.4,57.2,61.6,57.1,51.2,90,70,41,29.90,29.60,11,2,20,0.00
2014-6-26,84.7,71.1,58.0,65.1,58.0,46.5,92,65,35,29.68,29.37,16,3,30,0.97
2014-6-27,76.8,65.4,58.0,62.0,57.1,54.3,91,76,58,29.52,29.42,14,0,20,0.23
2014-6-28,72.0,63.9,58.1,61.1,53.5,42.9,89,70,41,29.67,29.42,13,1,22,0.33
2014-6-29,75.8,66.6,52.0,53.5,46.9,39.6,76,51,34,29.72,29.64,9,1,11,0.00
2014-6-30,74.6,66.5,58.4,52.3,42.6,33.3,77,43,22,29.79,29.66,23,5,29,0.00
2014-7-1,67.9,63.6,56.6,51.1,47.4,44.0,72,56,44,30.05,29.77,19,5,23,0.00
2014-7-2,74.0,64.8,53.5,52.9,48.6,44.3,73,57,41,30.09,29.96,9,0,12,0.00
2014-7-3,84.5,69.9,53.5,65.3,55.5,47.5,83,62,39,29.99,29.80,12,2,15,0.00
2014-7-4,87.0,75.4,64.5,67.5,62.2,55.0,84,65,40,29.82,29.70,10,0,13,0.00
2014-7-5,93.4,82.0,67.1,65.6,57.8,52.5,66,45,28,29.74,29.65,10,1,15,0.00
2014-7-6,84.0,77.6,68.8,59.1,52.8,46.5,60,43,31,29.83,29.69,9,1,12,0.00
2014-7-7,79.9,70.8,62.4,62.0,55.3,47.7,83,59,42,29.92,29.64,13,2,22,0.24
2014-7-8,78.8,69.0,58.6,52.6,48.2,44.7,66,49,31,29.99,29.91,9,1,17,0.00
2014-7-9,79.4,68.8,58.1,56.9,53.8,50.2,79,61,40,29.93,29.76,11,2,15,0.00
2014-7-10,83.8,72.0,60.4,65.6,59.7,56.2,91,67,42,29.78,29.64,8,1,12,0.05
2014-7-11,84.9,74.2,66.0,67.3,60.0,54.4,80,62,42,29.91,29.68,8,1,13,0.09
2014-7-12,80.3,71.5,63.2,64.1,60.1,54.5,83,68,50,29.99,29.87,7,1,12,0.00
2014-7-13,84.1,73.5,62.6,60.5,51.0,43.5,74,48,27,30.02,29.88,8,1,14,0.00
2014-7-14,70.9,63.1,54.7,51.8,45.4,41.8,71,53,38,30.16,29.97,8,2,14,0.00
2014-7-15,73.2,60.3,47.3,51.2,46.9,42.7,85,63,41,30.16,29.92,12,2,22,0.00
2014-7-16,76.8,64.1,54.2,56.7,51.7,45.0,84,65,44,29.97,29.84,10,1,14,0.00
2014-7-17,83.0,69.2,53.3,59.8,54.2,48.9,94,63,31,29.85,29.66,10,2,19,0.00
2014-7-18,88.0,73.7,57.0,62.0,53.3,47.1,86,53,25,29.75,29.60,11,1,19,0.00
2014-7-19,89.7,78.6,61.0,63.2,57.2,50.9,84,51,30,29.81,29.53,13,2,16,0.16
2014-7-20,93.8,81.4,67.4,64.5,55.7,47.0,74,44,23,29.59,29.51,7,0,10,0.00
2014-7-21,99.9,84.6,67.1,62.3,53.2,41.8,80,39,14,29.81,29.50,12,1,19,0.01
2014-7-22,86.1,74.7,65.6,64.1,60.9,52.9,87,65,39,30.06,29.80,8,1,17,0.27
2014-7-23,85.7,76.2,61.3,66.2,60.0,53.5,84,59,36,30.17,29.76,17,3,22,0.53
2014-7-24,95.6,79.7,66.8,69.6,63.5,49.6,88,61,28,29.77,29.39,11,1,14,0.00
2014-7-25,82.2,73.9,66.8,63.6,44.8,30.8,68,37,26,29.76,29.53,16,3,20,0.00
2014-7-26,83.4,73.4,64.7,52.3,44.2,37.0,60,37,24,29.99,29.66,11,1,18,0.00
2014-7-27,79.4,68.8,58.9,49.4,45.6,41.4,53,44,30,30.10,29.99,6,1,15,0.00
2014-7-28,80.7,73.9,63.7,55.4,52.5,50.5,62,48,36,30.14,30.02,11,2,16,0.00
2014-7-29,65.0,60.7,56.9,54.6,51.1,49.1,77,71,63,30.10,30.05,3,0,5,0.00
2014-7-31,87.2,74.5,61.8,50.7,47.3,43.6,57,40,22,29.98,29.86,6,1,17,0.00
2014-8-1,87.2,75.6,62.3,54.9,48.5,43.6,62,40,24,29.89,29.81,7,2,21,0.09
2014-8-2,86.7,76.5,63.2,55.5,49.7,43.3,62,41,22,29.93,29.85,4,1,15,0.00
2014-8-3,86.1,74.6,63.5,57.9,54.4,52.2,70,51,32,29.94,29.82,7,1,16,0.01
2014-8-4,83.0,72.7,62.1,63.3,59.0,54.7,83,63,44,29.89,29.80,5,1,14,0.00
2014-8-5,75.4,67.8,63.5,64.6,62.1,59.1,94,83,64,29.88,29.80,7,2,21,2.02
2014-8-6,73.0,67.7,63.1,64.5,62.7,61.4,96,84,67,29.86,29.81,5,0,9,0.01
2014-8-7,82.2,72.1,62.0,64.9,61.4,55.0,95,72,40,29.84,29.74,8,0,11,0.00
2014-8-8,75.4,67.9,61.8,64.7,60.9,56.8,92,79,58,29.83,29.74,8,1,13,0.00
2014-8-9,81.8,67.0,55.4,61.3,57.9,53.7,95,76,41,29.97,29.80,10,1,28,1.01
2014-8-10,79.0,69.5,62.7,61.2,54.6,46.7,86,62,33,30.11,29.97,8,1,14,0.00
2014-8-11,79.4,68.6,55.7,54.9,50.3,46.2,77,54,35,30.12,30.01,7,1,12,0.00
2014-8-12,85.9,73.7,58.1,60.0,55.1,50.1,78,54,36,30.05,29.81,12,2,19,0.00
2014-8-13,91.0,77.2,62.9,66.9,59.5,51.4,83,57,32,29.85,29.66,12,2,17,0.01
2014-8-14,90.7,76.5,66.8,65.1,60.5,53.2,89,59,28,29.69,29.57,7,0,25,0.23
2014-8-15,84.1,74.0,64.2,64.6,59.9,55.2,90,64,40,29.73,29.64,7,1,11,0.04
2014-8-16,86.5,74.6,61.6,58.7,55.2,50.3,82,54,29,29.83,29.72,4,0,11,0.00
2014-8-17,78.3,70.1,62.3,66.6,60.7,56.7,85,73,54,29.84,29.71,7,1,14,0.17
2014-8-18,82.2,72.4,62.7,60.6,53.2,48.7,88,53,32,29.81,29.69,14,2,19,0.00
2014-8-19,85.3,74.2,60.9,60.5,56.4,52.5,77,55,38,29.72,29.50,8,1,14,0.00
2014-8-20,85.7,75.2,65.3,63.2,56.0,49.1,76,53,30,29.61,29.45,6,1,12,0.00
2014-8-21,80.5,70.7,62.9,61.8,57.1,52.1,88,64,39,29.79,29.61,7,1,22,0.22
2014-8-22,72.0,64.9,61.2,61.2,59.6,58.1,93,84,66,29.89,29.79,4,1,12,0.00
2014-8-23,74.7,68.3,61.8,63.1,60.2,58.0,88,76,65,29.58,29.54,4,1,11,0.05
2014-8-24,74.4,64.0,54.2,57.7,42.8,39.5,90,48,29,29.86,29.58,14,3,27,0.00
2014-8-25,69.3,58.6,48.5,48.8,45.2,41.7,80,62,44,30.07,29.88,5,0,10,0.00
2014-8-26,75.4,63.8,53.2,58.2,53.4,46.9,86,70,54,30.07,29.94,9,1,17,0.00
2014-8-27,74.4,65.6,57.3,62.5,58.2,53.0,92,77,63,30.00,29.85,7,0,11,0.09
2014-8-28,78.5,68.4,61.5,60.4,57.4,52.2,92,70,42,29.84,29.72,4,0,5,0.00
2014-8-29,77.4,68.6,59.6,57.1,51.9,47.2,89,56,41,29.84,29.69,15,2,22,0.01
2014-8-30,87.8,69.4,56.0,57.6,52.9,49.3,89,60,28,29.84,29.41,10,2,27,0.05
2014-8-31,69.3,59.7,55.0,56.3,52.6,48.2,91,78,57,29.75,29.53,7,0,25,1.12
2014-9-1,70.1,60.3,51.3,51.7,47.0,42.6,80,63,42,29.87,29.74,7,0,16,0.24
2014-9-2,79.6,66.2,49.2,51.6,44.8,39.0,75,49,24,29.87,29.57,8,1,13,0.00
2014-9-3,94.7,73.2,53.3,58.2,46.3,37.8,68,42,14,29.56,29.35,8,1,21,0.00
2014-9-4,70.9,61.3,54.2,46.4,39.5,29.8,57,45,29,30.10,29.56,13,3,29,0.00
2014-9-5,68.6,57.9,47.4,45.3,41.7,38.3,75,56,39,30.20,30.10,5,0,13,0.00
2014-9-6,78.3,62.2,45.7,49.7,44.5,40.8,86,57,28,30.17,29.95,7,1,16,0.00
2014-9-7,84.5,67.9,49.9,55.0,46.9,42.2,76,50,27,29.94,29.63,10,1,14,0.00
2014-9-8,88.4,75.0,64.2,44.6,38.1,29.6,46,28,13,29.63,29.52,7,1,12,0.00
2014-9-9,72.1,55.5,43.9,51.5,46.6,39.8,94,76,31,29.94,29.50,7,2,15,0.04
2014-9-10,44.1,40.5,37.8,42.5,38.1,36.0,94,91,81,30.30,29.94,8,2,14,0.16
2014-9-11,38.2,35.3,32.8,35.2,33.0,31.1,94,91,85,30.59,30.30,8,1,10,0.34
2014-9-12,55.7,43.6,30.9,33.8,32.2,28.9,92,67,40,30.58,30.11,6,1,19,0.01
2014-9-13,62.9,49.1,32.5,38.2,33.7,26.4,92,60,27,30.15,30.01,11,1,18,0.00
2014-9-14,53.5,45.5,37.2,39.5,37.1,33.4,86,73,56,30.19,30.05,6,1,11,0.00
2014-9-15,67.4,52.7,37.2,44.3,40.8,34.3,90,67,41,30.26,29.99,14,3,24,0.00
2014-9-16,79.6,63.6,45.8,50.6,44.3,41.2,84,54,28,29.99,29.79,5,0,10,0.00
2014-9-17,79.2,67.9,58.4,52.5,45.4,34.4,71,46,29,29.80,29.72,9,1,11,0.00
2014-9-18,91.2,69.6,50.1,59.2,51.6,44.0,92,59,20,29.78,29.49,9,1,16,0.00
2014-9-19,83.0,73.2,64.8,54.2,49.8,46.7,63,45,30,29.77,29.55,11,0,19,0.00
2014-9-20,75.8,67.6,57.5,48.2,42.2,36.7,55,41,26,30.10,29.77,15,2,25,0.00
2014-9-21,72.5,61.3,50.8,39.2,36.9,34.7,56,41,28,30.21,30.07,8,1,10,0.00
2014-9-22,77.6,63.5,47.7,54.1,45.2,37.8,72,54,33,30.07,29.75,12,2,20,0.01
2014-9-23,80.7,68.2,57.5,56.4,52.8,47.7,86,60,36,29.82,29.71,7,0,8,0.01
2014-9-24,86.7,73.5,62.6,48.1,45.4,43.0,54,38,22,29.92,29.82,7,1,16,0.00
2014-9-25,91.4,72.5,53.5,52.4,45.8,43.2,71,43,20,29.89,29.74,11,2,20,0.00
2014-9-26,93.6,75.1,59.6,50.4,46.6,43.6,63,40,18,29.74,29.58,11,3,24,0.00
2014-9-27,79.4,67.6,57.6,55.5,50.3,46.8,71,55,39,29.84,29.62,10,1,14,0.00
2014-9-28,63.7,53.9,50.4,54.1,47.8,45.4,93,80,68,30.09,29.84,14,3,22,0.00
2014-9-29,52.5,50.0,48.2,51.4,48.7,46.8,96,95,93,30.06,29.68,5,1,12,1.88
2014-9-30,64.7,56.4,52.5,52.7,48.0,42.3,96,76,44,29.68,29.34,13,3,28,1.37
2014-10-1,57.5,52.9,47.4,46.4,43.4,38.8,81,70,61,29.89,29.60,8,1,13,0.13
2014-10-2,62.0,48.6,36.6,40.3,33.5,22.4,83,58,31,30.20,29.85,12,3,25,0.10
2014-10-3,51.3,41.3,34.4,25.0,21.0,17.8,66,46,27,30.28,30.16,18,2,26,0.00
2014-10-4,65.5,50.4,32.2,38.4,31.8,22.9,74,51,29,30.16,29.79,11,1,21,0.00
2014-10-5,63.4,56.6,44.6,42.6,37.7,34.7,76,50,35,29.81,29.72,18,4,32,0.00
2014-10-6,72.1,59.6,43.2,46.7,38.1,34.0,73,47,27,29.73,29.55,20,2,30,0.00
2014-10-7,62.3,54.6,44.5,44.1,38.5,27.0,75,56,26,29.97,29.69,6,1,16,0.00
2014-10-8,68.6,53.4,40.2,45.3,38.5,33.1,85,60,34,29.98,29.87,5,1,11,0.00
2014-10-9,56.7,46.7,37.8,37.8,35.5,33.1,85,66,46,30.22,29.98,5,0,10,0.00
2014-10-10,62.6,50.5,40.2,46.8,40.7,32.3,87,70,56,30.22,29.94,10,2,20,0.00
2014-10-11,76.8,56.2,39.3,48.3,42.8,36.9,92,65,27,29.94,29.51,14,2,16,0.00
2014-10-12,59.9,50.9,44.3,45.9,41.2,34.2,87,70,52,29.93,29.44,15,3,28,0.41
2014-10-13,61.0,51.8,44.2,36.5,32.6,29.4,67,49,31,30.07,29.93,12,1,17,0.00
2014-10-14,68.9,54.1,40.2,41.5,33.9,27.7,74,49,27,30.00,29.82,10,1,16,0.00
2014-10-15,81.2,62.0,39.6,45.0,35.0,27.4,83,46,16,29.82,29.49,18,2,21,0.00
2014-10-16,72.5,59.6,47.4,39.8,31.4,23.4,74,36,18,29.94,29.49,8,3,26,0.00
2014-10-17,54.5,46.6,37.2,40.1,38.4,33.7,87,74,56,30.15,29.94,7,0,12,0.00
2014-10-18,68.3,51.6,34.7,45.0,39.1,32.3,92,66,38,30.15,29.86,8,1,17,0.00
2014-10-19,71.8,60.5,48.6,42.4,37.8,33.5,71,44,29,29.95,29.86,6,0,9,0.00
2014-10-20,76.1,59.5,42.5,44.0,40.5,35.8,77,53,29,29.95,29.74,18,2,18,0.00
2014-10-21,82.4,63.6,45.5,46.5,40.8,38.4,78,48,21,29.74,29.56,13,2,19,0.00
2014-10-22,69.1,57.1,43.6,40.9,34.0,26.4,68,44,25,29.91,29.60,6,1,16,0.00
2014-10-23,71.1,54.3,41.9,36.7,30.0,19.7,67,41,19,29.91,29.78,2,0,9,0.00
2014-10-24,71.1,59.5,49.5,38.8,33.4,26.8,57,38,25,30.02,29.79,6,1,11,0.00
2014-10-25,65.3,53.5,40.3,38.5,34.2,28.9,71,50,27,30.07,29.69,9,2,19,0.00
2014-10-26,76.3,60.4,45.5,38.9,35.3,24.2,69,43,15,29.69,29.47,15,2,21,0.00
2014-10-27,55.4,48.0,40.3,33.8,26.7,16.7,59,44,32,29.97,29.55,14,2,24,0.01
2014-10-28,51.3,38.9,26.1,27.6,21.7,15.8,84,53,27,30.17,29.97,9,1,15,0.00
2014-10-29,65.6,45.7,28.4,35.5,27.2,19.2,71,51,24,30.15,29.95,6,0,23,0.00
2014-10-30,54.2,44.5,33.5,35.5,31.8,28.6,82,62,48,30.46,30.08,10,2,16,0.00
2014-10-31,52.8,38.9,30.0,32.6,29.5,27.7,92,71,41,30.46,29.91,21,4,26,0.00
2014-11-1,61.5,47.0,33.1,39.6,33.0,27.0,79,59,42,29.87,29.59,7,1,14,0.00
2014-11-2,64.2,54.4,41.8,40.5,36.3,33.0,72,51,34,29.79,29.58,8,1,14,0.00
2014-11-3,51.7,44.9,39.5,33.9,24.9,17.9,68,46,26,30.07,29.79,8,1,16,0.00
2014-11-4,60.9,49.8,38.0,26.9,23.2,19.8,56,36,24,30.09,29.86,7,0,9,0.00
2014-11-5,54.7,49.2,39.1,38.3,30.3,22.9,67,49,34,30.29,29.89,15,3,27,0.01
2014-11-6,63.5,48.9,33.8,34.7,30.4,25.7,75,51,27,30.30,29.76,9,2,17,0.00
2014-11-7,63.2,54.5,42.1,40.9,34.4,25.1,72,49,27,30.18,29.70,20,4,33,0.00
2014-11-8,61.8,44.3,30.0,37.2,30.4,25.5,89,61,28,30.19,29.85,5,0,11,0.00
2014-11-9,52.2,43.4,30.9,32.1,29.3,25.8,91,59,41,29.85,29.37,6,1,11,0.00
2014-11-10,30.9,17.9,13.1,27.8,13.6,4.2,93,83,67,30.44,29.44,14,2,19,0.00
2014-11-11,13.1,6.4,1.1,5.0,-3.1,-11.7,76,64,54,30.77,30.43,10,2,18,0.00
2014-11-12,12.9,5.7,-0.4,-0.6,-5.9,-12.0,75,58,52,30.86,30.77,13,2,18,0.00
2014-11-13,11.2,2.2,-5.0,1.1,-5.4,-10.9,77,70,61,30.85,30.44,7,0,14,0.00
2014-11-14,9.0,4.2,-3.1,4.4,-1.9,-9.1,81,75,69,30.44,30.31,5,0,11,0.00
2014-11-15,10.5,5.7,-3.9,5.3,-0.5,-9.4,82,75,66,30.47,30.32,9,2,18,0.00
2014-11-16,29.0,13.5,-4.1,15.8,3.4,-9.7,78,65,35,30.42,30.20,16,4,37,0.01
2014-11-17,18.4,11.5,1.3,5.3,1.8,-3.7,80,65,54,30.40,30.28,14,2,27,0.00
2014-11-18,45.5,25.7,1.1,24.8,11.8,-4.1,79,57,37,30.28,30.02,10,2,27,0.01
2014-11-19,32.2,26.9,19.4,23.6,20.4,16.0,88,76,66,30.15,30.07,6,1,18,0.00
2014-11-20,29.3,20.2,10.4,22.7,16.1,6.5,90,84,76,30.13,29.99,3,0,7,0.00
2014-11-21,53.1,40.5,21.6,27.6,22.8,17.0,85,51,27,29.99,29.75,3,0,6,0.00
2014-11-22,56.9,43.8,24.8,33.8,25.2,19.1,80,51,27,29.75,29.37,12,2,29,0.00
2014-11-23,42.6,38.8,34.6,22.7,18.3,15.7,53,43,36,29.73,29.49,25,6,33,0.00
2014-11-24,34.6,31.0,24.7,29.3,20.2,14.2,89,66,45,30.12,29.73,10,1,20,0.08
2014-11-25,39.3,33.0,25.3,31.0,22.6,17.5,77,66,50,30.14,29.81,22,3,30,0.06
2014-11-26,31.8,27.1,24.2,25.0,21.5,19.7,90,79,71,30.38,30.14,8,1,22,0.00
2014-11-27,48.3,29.6,19.7,29.0,23.7,17.0,92,80,44,30.35,29.87,7,2,11,0.00
2014-11-28,66.0,53.3,40.3,37.5,26.0,16.9,61,36,20,29.87,29.37,11,1,17,0.00
2014-11-29,58.9,32.7,5.0,25.6,13.2,-2.9,88,55,17,29.92,29.28,13,3,24,0.00
2014-11-30,10.9,4.9,0.7,-1.3,-3.7,-5.7,77,67,55,30.77,29.92,9,1,17,0.00
2014-12-1,42.9,21.3,-1.8,24.1,11.0,-7.2,78,65,47,30.75,30.00,13,2,27,0.00
2014-12-2,40.1,33.0,24.2,25.6,17.3,6.7,75,53,36,30.24,29.92,8,1,13,0.00
2014-12-3,39.1,27.8,14.1,20.6,13.6,6.0,76,56,36,30.27,29.94,13,2,22,0.00
2014-12-4,50.7,36.2,24.7,27.6,24.0,18.8,78,62,39,29.99,29.83,5,0,6,0.00
2014-12-5,45.7,38.0,27.3,34.8,30.3,24.5,90,74,59,30.37,29.95,3,0,9,0.00
2014-12-6,46.7,35.6,24.5,37.4,28.8,22.0,92,77,59,30.37,30.05,12,2,16,0.00
2014-12-7,56.5,46.5,32.7,30.1,24.8,21.1,80,44,27,30.20,30.04,19,3,26,0.00
2014-12-8,51.1,36.9,22.7,26.5,22.9,19.1,86,59,35,30.30,30.17,7,0,10,0.00
2014-12-9,47.4,33.9,23.0,27.0,24.0,19.1,88,69,43,30.29,30.07,6,0,8,0.00
2014-12-10,62.0,47.8,33.1,31.4,27.8,23.1,67,47,30,30.08,29.93,4,0,7,0.00
2014-12-11,71.6,44.0,30.0,33.2,24.6,17.9,80,52,15,29.93,29.81,5,0,11,0.00
2014-12-12,64.7,43.0,32.9,30.9,25.7,21.9,68,52,27,29.86,29.76,0,0,7,0.00
2014-12-13,59.3,46.0,32.4,33.1,29.6,24.1,71,54,35,29.77,29.62,5,0,9,0.00
2014-12-14,47.9,35.9,29.3,31.6,27.9,23.0,82,73,53,29.96,29.64,21,4,23,0.00
2014-12-15,30.0,25.9,21.1,24.6,19.7,16.1,85,77,66,30.36,29.95,21,4,28,0.00
2014-12-16,26.4,21.6,18.3,18.3,16.7,15.1,87,81,71,30.39,30.27,8,1,12,0.00
2014-12-17,23.2,20.8,18.3,20.5,18.1,15.4,90,89,88,30.26,30.11,7,2,12,0.00
2014-12-18,43.3,28.4,17.3,28.7,21.0,14.0,88,74,56,30.16,30.08,4,0,7,0.00
2014-12-19,49.5,36.7,29.1,25.0,20.0,16.4,76,52,31,30.09,29.93,5,0,14,0.00
2014-12-20,50.1,39.9,31.2,28.1,23.3,17.0,76,52,40,29.94,29.76,0,0,7,0.00
2014-12-21,48.8,37.1,26.7,34.5,26.0,19.0,83,66,36,29.74,29.40,9,1,23,0.00
2014-12-22,44.1,37.5,26.9,32.9,23.5,16.6,88,59,33,29.82,29.48,29,8,34,0.01
2014-12-23,32.4,27.8,18.4,22.8,19.7,13.7,85,72,57,30.21,29.82,17,4,29,0.00
2014-12-24,41.9,27.5,13.3,27.4,19.7,8.6,83,73,51,30.12,29.49,2,0,10,0.00
2014-12-25,35.9,26.8,20.8,28.9,23.5,17.0,92,87,65,30.08,29.53,7,3,15,0.00
2014-12-26,21.6,18.5,11.7,17.0,13.5,6.7,86,80,73,30.30,30.08,7,0,9,0.00
2014-12-27,24.8,18.4,10.2,16.1,10.3,4.2,81,70,59,30.30,30.14,5,0,6,0.02
2014-12-28,29.1,20.1,14.4,18.6,11.3,5.5,85,69,51,30.37,30.07,4,0,7,0.01
2014-12-29,14.4,4.0,-1.4,9.9,-1.5,-7.5,83,77,71,30.98,30.37,5,1,9,0.00
2014-12-30,2.8,-3.0,-10.5,-5.8,-10.3,-16.5,75,70,64,31.08,30.67,4,0,7,0.00
2014-12-31,26.4,9.5,-10.3,11.6,-0.4,-16.5,78,65,41,30.67,30.29,5,0,8,0.00
2015-1-1,36.3,25.3,16.1,24.8,16.4,8.7,82,69,57,30.25,30.11,5,0,6,0.04
2015-1-2,41.8,28.7,21.4,28.3,21.3,15.4,83,74,56,30.14,29.74,4,0,7,0.02